ASIASAT 4

Last updated on Sept. 30, 2020, 5:50 a.m. UTC

1 27718U 03014A   20273.71962019  .00000136  00000-0  00000-0 0  9992
2 27718   0.0086 199.6188 0001972 342.2132 124.4113  1.00269100 24370
UTC
Height (km)
Latitude
Longitude
Inclination
Orbital Period
UTC large
Height (km)
Speed (km/s)
/
Latitude / Longitude
Inclination (degrees)
Orbital Period (minutes)
Azimuth
Elevation
Range (km)
Doppler Factor
iOS Compass Heading
iOS Angle

Next 30 passes for location: Hong Kong

Rise time Rise Azimuth (degrees) Set time Set Azimuth (degrees) Duration Max altitude (degrees)

No matching passes for this satellites